Location: NJAA Observatory
(40.6819°N, 74.8979°W)
Time: 13:57:04
(UTC-05:00)

Cosmos 2237 Rocket - Visible Passes

Search period start: 21 February 2018 00:00
Search period end: 03 March 2018 00:00
Orbit: 836 x 848 km, 71.0° (Epoch: 20 February)

Date Brightness Start Highest point End Pass type
(mag) Time Alt. Az. Time Alt. Az. Time Alt. Az.
21 Feb 3.7 18:53:34 10° NW 18:58:43 38° WSW 19:03:51 10° S visible
22 Feb 3.7 18:38:41 10° NW 18:43:53 40° WSW 18:49:05 10° S visible
23 Feb 3.6 18:23:48 10° NW 18:29:03 42° WSW 18:34:18 10° S visible
24 Feb 3.6 18:08:55 10° NW 18:14:13 44° WSW 18:19:31 10° S visible
02 Mar 3.7 06:01:44 10° S 06:07:01 42° ESE 06:12:17 10° NE visible
